| time (UTC) | temp C | wind direction | speed KPH | gust KPH | rain 1hr cm | rain 24hr cm | rain mn cm | humidity % | barometer mb |
| 20260503173713 | 19 | 26 | 8.0 | 16.1 | 0.00 | 0.00 | 0.00 | 83 | 1014.8 |
| 20260503173211 | 19 | 26 | 9.7 | 19.3 | 0.00 | 0.00 | 0.00 | 83 | 1014.7 |
| 20260503172710 | 19 | 22 | 11.3 | 17.7 | 0.00 | 0.00 | 0.00 | 83 | 1014.8 |
| 20260503172209 | 19 | 16 | 11.3 | 16.1 | 0.00 | 0.00 | 0.00 | 83 | 1014.7 |
| 20260503171204 | 19 | 34 | 9.7 | 16.1 | 0.00 | 0.00 | 0.00 | 85 | 1014.8 |
| 20260503170703 | 18 | 37 | 8.0 | 12.9 | 0.00 | 0.00 | 0.00 | 85 | 1014.9 |
| 20260503170201 | 18 | 35 | 9.7 | 14.5 | 0.00 | 0.00 | 0.00 | 85 | 1014.9 |
| 20260503160126 | 18 | 21 | 8.0 | 16.1 | 0.00 | 0.00 | 0.00 | 86 | 1015.4 |
| 20260503150605 | 19 | 22 | 12.9 | 20.9 | 0.00 | 0.00 | 0.00 | 85 | 1015.8 |
| 20260503150104 | 19 | 21 | 12.9 | 20.9 | 0.00 | 0.00 | 0.00 | 85 | 1015.9 |
| 20260503131017 | 20 | 17 | 14.5 | 22.5 | 0.00 | 0.00 | 0.00 | 86 | 1017.1 |
| 20260503110423 | 20 | 8 | 16.1 | 25.7 | 0.00 | 0.00 | 0.00 | 86 | 1018.1 |
| 20260503090335 | 20 | 19 | 17.7 | 25.7 | 0.00 | 0.00 | 0.00 | 86 | 1017.6 |
| 20260503081317 | 20 | 15 | 17.7 | 27.4 | 0.00 | 0.00 | 0.00 | 83 | 1017.4 |
| 20260503080816 | 21 | 21 | 17.7 | 24.1 | 0.00 | 0.00 | 0.00 | 82 | 1017.4 |
| 20260503072759 | 21 | 24 | 19.3 | 29.0 | 0.00 | 0.00 | 0.00 | 81 | 1017.3 |
| 20260503072256 | 21 | 28 | 19.3 | 27.4 | 0.00 | 0.00 | 0.00 | 81 | 1017.3 |
| 20260503071251 | 21 | 29 | 19.3 | 27.4 | 0.00 | 0.00 | 0.00 | 81 | 1017.2 |
| 20260503070750 | 21 | 31 | 20.9 | 30.6 | 0.00 | 0.00 | 0.00 | 80 | 1017.1 |
| 20260503070248 | 21 | 30 | 24.1 | 30.6 | 0.00 | 0.00 | 0.00 | 79 | 1017.2 |
| 20260503060224 | 22 | 34 | 19.3 | 25.7 | 0.00 | 0.00 | 0.00 | 74 | 1017.3 |
| 20260503054217 | 22 | 41 | 20.9 | 30.6 | 0.00 | 0.00 | 0.00 | 75 | 1017.4 |
| 20260503053212 | 22 | 44 | 22.5 | 33.8 | 0.00 | 0.00 | 0.00 | 74 | 1017.5 |
| 20260503052711 | 22 | 48 | 24.1 | 37.0 | 0.00 | 0.00 | 0.00 | 74 | 1017.5 |
| 20260503052210 | 22 | 45 | 20.9 | 33.8 | 0.00 | 0.00 | 0.00 | 74 | 1017.6 |
| 20260503051708 | 22 | 46 | 22.5 | 30.6 | 0.00 | 0.00 | 0.00 | 74 | 1017.5 |
| 20260503051207 | 22 | 44 | 20.9 | 32.2 | 0.00 | 0.00 | 0.00 | 74 | 1017.5 |
| 20260503050706 | 22 | 46 | 24.1 | 32.2 | 0.00 | 0.00 | 0.00 | 74 | 1017.6 |
| 20260503045700 | 22 | 43 | 19.3 | 32.2 | 0.00 | 0.00 | 0.00 | 73 | 1017.6 |
| 20260503044656 | 22 | 46 | 22.5 | 33.8 | 0.00 | 0.00 | 0.00 | 72 | 1017.6 |
| 20260503044154 | 22 | 50 | 24.1 | 35.4 | 0.00 | 0.00 | 0.00 | 72 | 1017.6 |
| 20260503043652 | 22 | 48 | 24.1 | 35.4 | 0.00 | 0.00 | 0.00 | 71 | 1017.6 |
| 20260503043151 | 22 | 49 | 25.7 | 40.2 | 0.00 | 0.00 | 0.00 | 70 | 1017.7 |
| 20260503042649 | 22 | 49 | 25.7 | 37.0 | 0.00 | 0.00 | 0.00 | 72 | 1017.8 |
| 20260503042148 | 22 | 49 | 25.7 | 38.6 | 0.00 | 0.00 | 0.00 | 71 | 1017.7 |
| 20260503041647 | 22 | 46 | 22.5 | 32.2 | 0.00 | 0.00 | 0.00 | 70 | 1017.7 |
| 20260503041146 | 23 | 36 | 17.7 | 25.7 | 0.00 | 0.00 | 0.00 | 65 | 1017.7 |
| 20260503040643 | 23 | 40 | 17.7 | 25.7 | 0.00 | 0.00 | 0.00 | 66 | 1017.7 |
| 20260503040142 | 23 | 48 | 24.1 | 38.6 | 0.00 | 0.00 | 0.00 | 66 | 1017.7 |
| 20260503035641 | 23 | 46 | 22.5 | 35.4 | 0.00 | 0.00 | 0.00 | 65 | 1017.8 |
| 20260503034634 | 23 | 39 | 17.7 | 24.1 | 0.00 | 0.00 | 0.00 | 62 | 1017.9 |
| 20260503034132 | 23 | 37 | 17.7 | 22.5 | 0.00 | 0.00 | 0.00 | 63 | 1017.9 |
| 20260503033631 | 23 | 41 | 17.7 | 29.0 | 0.00 | 0.00 | 0.00 | 62 | 1017.9 |
| 20260503033130 | 23 | 42 | 17.7 | 25.7 | 0.00 | 0.00 | 0.00 | 65 | 1018.0 |
| 20260503032628 | 23 | 42 | 19.3 | 29.0 | 0.00 | 0.00 | 0.00 | 64 | 1018.0 |
| 20260503032126 | 23 | 42 | 17.7 | 25.7 | 0.00 | 0.00 | 0.00 | 66 | 1018.1 |
| 20260503031121 | 23 | 37 | 17.7 | 24.1 | 0.00 | 0.00 | 0.00 | 63 | 1018.3 |
| 20260503030620 | 23 | 38 | 17.7 | 25.7 | 0.00 | 0.00 | 0.00 | 65 | 1018.3 |
| 20260503025614 | 23 | 40 | 16.1 | 22.5 | 0.00 | 0.00 | 0.00 | 67 | 1018.4 |
| 20260503025113 | 23 | 38 | 17.7 | 27.4 | 0.00 | 0.00 | 0.00 | 68 | 1018.5 |
| 20260503024611 | 23 | 44 | 19.3 | 27.4 | 0.00 | 0.00 | 0.00 | 65 | 1018.6 |
| 20260503022559 | 23 | 47 | 20.9 | 29.0 | 0.00 | 0.00 | 0.00 | 64 | 1018.9 |
| 20260503021555 | 23 | 38 | 16.1 | 22.5 | 0.00 | 0.00 | 0.00 | 64 | 1019.2 |
| 20260503021053 | 23 | 33 | 16.1 | 22.5 | 0.00 | 0.00 | 0.00 | 65 | 1019.4 |
| 20260503020048 | 23 | 33 | 17.7 | 22.5 | 0.00 | 0.00 | 0.00 | 65 | 1019.3 |
| 20260503015043 | 23 | 38 | 17.7 | 25.7 | 0.00 | 0.00 | 0.00 | 67 | 1019.6 |
| 20260503014038 | 23 | 36 | 17.7 | 24.1 | 0.00 | 0.00 | 0.00 | 66 | 1019.6 |
| 20260503013537 | 23 | 39 | 19.3 | 30.6 | 0.00 | 0.00 | 0.00 | 68 | 1019.6 |
| 20260503012029 | 23 | 39 | 16.1 | 24.1 | 0.00 | 0.00 | 0.00 | 67 | 1019.9 |
| 20260503011527 | 23 | 38 | 17.7 | 24.1 | 0.00 | 0.00 | 0.00 | 69 | 1020.0 |
| 20260503011026 | 23 | 37 | 16.1 | 24.1 | 0.00 | 0.00 | 0.00 | 67 | 1020.2 |
| 20260503010524 | 23 | 34 | 16.1 | 22.5 | 0.00 | 0.00 | 0.00 | 68 | 1020.2 |
| 20260503010023 | 23 | 35 | 16.1 | 22.5 | 0.00 | 0.00 | 0.00 | 68 | 1020.2 |
| 20260503005521 | 23 | 34 | 16.1 | 24.1 | 0.00 | 0.00 | 0.00 | 69 | 1020.3 |
| 20260503005019 | 23 | 29 | 16.1 | 22.5 | 0.00 | 0.00 | 0.00 | 71 | 1020.3 |
| 20260503003007 | 22 | 27 | 16.1 | 24.1 | 0.00 | 0.00 | 0.00 | 71 | 1020.7 |
| 20260503002506 | 23 | 30 | 17.7 | 30.6 | 0.00 | 0.00 | 0.00 | 69 | 1020.9 |
| 20260503002004 | 22 | 33 | 14.5 | 19.3 | 0.00 | 0.00 | 0.00 | 69 | 1021.0 |
| 20260503001501 | 22 | 37 | 12.9 | 20.9 | 0.00 | 0.00 | 0.00 | 69 | 1020.9 |
| 20260503000959 | 22 | 45 | 14.5 | 20.9 | 0.00 | 0.00 | 0.00 | 72 | 1021.0 |
| 20260503000458 | 22 | 40 | 12.9 | 17.7 | 0.00 | 0.00 | 0.00 | 71 | 1020.9 |
| 20260502235453 | 22 | 44 | 11.3 | 19.3 | 0.00 | 0.00 | 0.00 | 72 | 1021.1 |
| 20260502234952 | 22 | 35 | 9.7 | 14.5 | 0.00 | 0.00 | 0.00 | 73 | 1021.2 |
| 20260502234451 | 22 | 36 | 8.0 | 11.3 | 0.00 | 0.00 | 0.00 | 73 | 1021.3 |
| 20260502233949 | 22 | 37 | 9.7 | 20.9 | 0.00 | 0.00 | 0.00 | 75 | 1021.3 |
| 20260502233447 | 22 | 37 | 8.0 | 11.3 | 0.00 | 0.00 | 0.00 | 75 | 1021.4 |
| 20260502232443 | 22 | 43 | 6.4 | 11.3 | 0.00 | 0.00 | 0.00 | 73 | 1021.3 |
| 20260502231942 | 22 | 43 | 8.0 | 12.9 | 0.00 | 0.00 | 0.00 | 73 | 1021.3 |
| 20260502231438 | 22 | 37 | 8.0 | 12.9 | 0.00 | 0.00 | 0.00 | 72 | 1021.2 |
| 20260502230937 | 22 | 34 | 8.0 | 16.1 | 0.00 | 0.00 | 0.00 | 73 | 1021.2 |
| 20260502230435 | 21 | 15 | 9.7 | 17.7 | 0.00 | 0.00 | 0.00 | 73 | 1021.1 |
| 20260502225933 | 21 | 11 | 9.7 | 16.1 | 0.00 | 0.00 | 0.00 | 72 | 1021.2 |
| 20260502225432 | 21 | 14 | 9.7 | 16.1 | 0.00 | 0.00 | 0.00 | 75 | 1021.2 |
| 20260502224931 | 21 | 18 | 8.0 | 14.5 | 0.00 | 0.00 | 0.00 | 75 | 1021.3 |
| 20260502223924 | 21 | 21 | 8.0 | 12.9 | 0.00 | 0.00 | 0.00 | 75 | 1021.3 |
| 20260502223421 | 21 | 22 | 8.0 | 11.3 | 0.00 | 0.00 | 0.00 | 75 | 1021.3 |
| 20260502222919 | 21 | 28 | 8.0 | 11.3 | 0.00 | 0.00 | 0.00 | 76 | 1021.2 |
| 20260502222417 | 20 | 22 | 8.0 | 12.9 | 0.00 | 0.00 | 0.00 | 77 | 1021.2 |
| 20260502221916 | 20 | 27 | 9.7 | 12.9 | 0.00 | 0.00 | 0.00 | 76 | 1021.3 |
| 20260502221415 | 20 | 36 | 8.0 | 12.9 | 0.00 | 0.00 | 0.00 | 78 | 1021.3 |
| 20260502220914 | 20 | 38 | 6.4 | 9.7 | 0.00 | 0.00 | 0.00 | 77 | 1021.3 |
| 20260502220412 | 20 | 41 | 6.4 | 9.7 | 0.00 | 0.00 | 0.00 | 77 | 1021.2 |
| 20260502215909 | 20 | 32 | 8.0 | 11.3 | 0.00 | 0.00 | 0.00 | 77 | 1021.1 |
| 20260502215407 | 20 | 34 | 6.4 | 9.7 | 0.00 | 0.00 | 0.00 | 79 | 1021.2 |
| 20260502214905 | 20 | 36 | 6.4 | 9.7 | 0.00 | 0.00 | 0.00 | 81 | 1021.1 |
| 20260502214402 | 20 | 38 | 6.4 | 8.0 | 0.00 | 0.00 | 0.00 | 81 | 1021.1 |
| 20260502213356 | 19 | 41 | 4.8 | 8.0 | 0.00 | 0.03 | 0.00 | 84 | 1021.0 |
| 20260502212855 | 18 | 36 | 4.8 | 8.0 | 0.00 | 0.03 | 0.00 | 87 | 1021.1 |
| 20260502211850 | 18 | 17 | 4.8 | 6.4 | 0.00 | 0.05 | 0.00 | 88 | 1020.9 |
| 20260502211348 | 18 | 15 | 4.8 | 8.0 | 0.00 | 0.05 | 0.00 | 88 | 1020.9 |
| 20260502210344 | 17 | 22 | 4.8 | 8.0 | 0.00 | 0.05 | 0.00 | 89 | 1020.9 |
| 20260502205843 | 17 | 16 | 6.4 | 8.0 | 0.00 | 0.05 | 0.00 | 89 | 1020.8 |
| 20260502205341 | 17 | 8 | 6.4 | 9.7 | 0.00 | 0.05 | 0.00 | 89 | 1020.7 |
| 20260502204840 | 17 | 6 | 8.0 | 11.3 | 0.00 | 0.05 | 0.00 | 89 | 1020.6 |
| 20260502204339 | 17 | 2 | 8.0 | 11.3 | 0.00 | 0.05 | 0.00 | 89 | 1020.6 |
| 20260502203838 | 17 | 358 | 8.0 | 12.9 | 0.00 | 0.05 | 0.00 | 88 | 1020.6 |
| 20260502203335 | 17 | 2 | 11.3 | 16.1 | 0.00 | 0.05 | 0.00 | 88 | 1020.5 |
| 20260502202834 | 17 | 1 | 11.3 | 17.7 | 0.00 | 0.05 | 0.00 | 88 | 1020.5 |
| 20260502202332 | 17 | 2 | 9.7 | 14.5 | 0.00 | 0.05 | 0.00 | 88 | 1020.4 |
| 20260502201831 | 17 | 1 | 8.0 | 12.9 | 0.00 | 0.05 | 0.00 | 88 | 1020.4 |
| 20260502200826 | 17 | 8 | 9.7 | 14.5 | 0.00 | 0.05 | 0.00 | 87 | 1020.4 |
| 20260502195822 | 18 | 10 | 11.3 | 19.3 | 0.00 | 0.05 | 0.00 | 86 | 1020.3 |
| 20260502195321 | 18 | 10 | 9.7 | 14.5 | 0.00 | 0.05 | 0.00 | 86 | 1020.3 |
| 20260502193813 | 17 | 7 | 11.3 | 17.7 | 0.00 | 0.05 | 0.00 | 88 | 1020.2 |
| 20260502193311 | 17 | 6 | 11.3 | 19.3 | 0.00 | 0.05 | 0.00 | 88 | 1020.1 |
| 20260502192810 | 17 | 8 | 11.3 | 16.1 | 0.00 | 0.05 | 0.00 | 88 | 1020.2 |
| 20260502192306 | 17 | 7 | 9.7 | 19.3 | 0.00 | 0.05 | 0.00 | 88 | 1020.1 |
| 20260502191805 | 17 | 8 | 11.3 | 17.7 | 0.00 | 0.05 | 0.00 | 89 | 1020.1 |
| 20260502191304 | 17 | 7 | 11.3 | 17.7 | 0.00 | 0.05 | 0.00 | 89 | 1020.1 |
| 20260502190801 | 17 | 7 | 11.3 | 17.7 | 0.00 | 0.05 | 0.00 | 88 | 1020.1 |
| 20260502190300 | 18 | 5 | 11.3 | 16.1 | 0.00 | 0.05 | 0.00 | 88 | 1020.2 |
| 20260502185256 | 18 | 5 | 11.3 | 17.7 | 0.00 | 0.05 | 0.00 | 86 | 1020.1 |
| 20260502184754 | 18 | 11 | 11.3 | 17.7 | 0.00 | 0.05 | 0.00 | 86 | 1020.1 |
| 20260502183244 | 18 | 17 | 11.3 | 14.5 | 0.00 | 0.05 | 0.00 | 86 | 1020.0 |
| 20260502182742 | 18 | 18 | 9.7 | 16.1 | 0.00 | 0.05 | 0.00 | 87 | 1020.0 |
| 20260502182240 | 18 | 15 | 9.7 | 12.9 | 0.00 | 0.05 | 0.00 | 87 | 1020.1 |
| 20260502181739 | 18 | 18 | 9.7 | 14.5 | 0.00 | 0.05 | 0.00 | 86 | 1020.1 |
| 20260502181238 | 18 | 24 | 8.0 | 12.9 | 0.00 | 0.05 | 0.00 | 86 | 1020.1 |
| 20260502180736 | 18 | 24 | 8.0 | 14.5 | 0.00 | 0.05 | 0.00 | 86 | 1020.1 |